Location: Invercargill
(46.4000°S, 168.3500°E)
Time: 00:54:23
(UTC+13:00)

Cosmos 2322 - Visible Passes

Search period start: 29 September 2021 00:00
Search period end: 09 October 2021 00:00
Orbit: 839 x 856 km, 71.0° (Epoch: 27 September)

Date Brightness Start Highest point End Pass type
(mag) Time Alt. Az. Time Alt. Az. Time Alt. Az.
29 Sep 6.2 01:11:15 10° SW 01:12:16 15° SW 01:12:16 15° SW visible
29 Sep 5.9 21:31:06 10° SSE 21:33:11 12° SSE 21:35:17 10° SE visible
29 Sep 4.7 23:13:22 10° SSW 23:17:27 39° SSE 23:17:27 39° SSE visible
30 Sep 6.0 00:57:56 10° SW 00:59:24 17° SW 00:59:24 17° SW visible
30 Sep 5.8 21:17:52 10° SSE 21:19:53 12° SSE 21:21:53 10° SE visible
30 Sep 4.5 23:00:05 10° SSW 23:04:36 42° SSE 23:04:36 42° SSE visible
01 Oct 5.9 00:44:38 10° SW 00:46:32 19° WSW 00:46:32 19° WSW visible
01 Oct 5.8 21:04:39 10° SSE 21:06:34 12° SSE 21:08:29 10° SE visible
01 Oct 4.3 22:46:48 10° SSW 22:51:46 44° SE 22:51:46 44° SE visible
02 Oct 5.7 00:31:20 10° SW 00:33:42 22° WSW 00:33:42 22° WSW visible
02 Oct 5.8 20:51:25 10° SSE 20:53:15 11° SSE 20:55:05 10° SE visible
02 Oct 4.2 22:33:31 10° SSW 22:38:57 45° SE 22:38:57 45° SE visible
03 Oct 5.5 00:18:01 10° SW 00:20:54 25° WSW 00:20:54 25° WSW visible
03 Oct 5.8 20:38:11 10° SSE 20:39:56 11° SSE 20:41:40 10° SE visible
03 Oct 4.2 22:20:15 10° SSW 22:25:44 44° SE 22:26:10 43° ESE visible
04 Oct 5.3 00:04:42 10° SW 00:08:07 28° WSW 00:08:07 28° WSW visible
04 Oct 5.8 20:24:58 10° SSE 20:26:37 11° SSE 20:28:16 10° SE visible
04 Oct 4.2 22:06:57 10° SSW 22:12:26 43° SE 22:13:26 40° E visible
04 Oct 5.1 23:51:25 10° SW 23:55:23 31° W 23:55:23 31° W visible
05 Oct 4.3 21:53:41 10° SSW 21:59:08 43° SE 22:00:43 35° E visible
05 Oct 5.0 23:38:06 10° SW 23:42:40 33° W 23:42:40 33° W visible
06 Oct 4.3 21:40:24 10° SSW 21:45:50 42° SE 21:48:02 30° ENE visible
06 Oct 4.8 23:24:47 10° SW 23:29:55 35° WNW 23:30:00 35° WNW visible
07 Oct 4.3 21:27:06 10° SSW 21:32:33 41° SE 21:35:24 25° ENE visible
07 Oct 4.8 23:11:28 10° SW 23:16:38 35° WNW 23:17:22 34° WNW visible
08 Oct 4.3 21:13:49 10° SSW 21:19:14 41° SE 21:22:50 20° ENE visible
08 Oct 4.8 22:58:10 10° SW 23:03:22 36° WNW 23:04:47 31° NW visible
